This demonstration page uses our WeatherBlox Daily Observations layout. Learn more.

Left ArrowRight Arrow

34.16533, -84.80231

Hourly Observations for March 24, 2021

Temp ( °F °C ) Dew Point ( °F °C ) Humidity (%) Winds ( mph kmh ) Pressure ( in mb ) Visibility ( mi km ) Precip ( " mm )
12:53 am 00:53 Clear 63 17.2 52 11.1 68 68 VRB 3 6 29.95 1014 10 16 0.00 0.00
1:53 am 01:53 Clear 61 16.1 53 11.7 75 75 Calm 29.94 1014 10 16 0.00 0.00
2:53 am 02:53 Cloudy 59 15 54 12.2 83 83 E 5 7 29.92 1013 10 16 0.00 0.00
3:53 am 03:53 Mostly Cloudy 60 15.6 53 11.7 78 78 W 3 6 29.93 1014 10 16 0.00 0.00
4:53 am 04:53 Cloudy 62 16.7 54 12.2 75 75 Calm 29.93 1014 10 16 0.00 0.00
5:53 am 05:53 Mostly Cloudy 60 15.6 54 12.2 80 80 Calm 29.92 1013 10 16 0.00 0.00
6:53 am 06:53 Clear 60 15.6 53 11.7 78 78 SE 6 9 29.92 1013 10 16 0.00 0.00
7:53 am 07:53 Sunny 60 15.6 54 12.2 80 80 SE 7 11 29.93 1013 10 16 0.00 0.00
8:53 am 08:53 Mostly Cloudy 61 16.1 54 12.2 78 78 SE 6 9 29.96 1015 10 16 0.00 0.00
9:53 am 09:53 Cloudy 63 17.2 55 12.8 76 76 SE 7 11 29.97 1015 10 16 0.00 0.00
10:53 am 10:53 Mostly Cloudy 66 18.9 56 13.3 70 70 SE 8 13 29.97 1015 10 16 0.00 0.00
11:53 am 11:53 Mostly Sunny 70 21.1 57 13.9 64 64 VRB 6 9 29.97 1015 10 16 0.00 0.00
12:13 pm 12:13 Mostly Cloudy 71 21.7 57 13.9 61 61 VRB 6 9 29.98 1015 10 16 0.00 0.00
12:37 pm 12:37 Partly Cloudy 72 22.2 56 13.3 57 57 SSE 10 17 29.98 1015 10 16 0.00 0.00
12:53 pm 12:53 Mostly Cloudy 71 21.7 56 13.3 59 59 S 10 17 29.96 1015 10 16 0.00 0.00
1:53 pm 13:53 Mostly Cloudy 73 22.8 56 13.3 55 55 SSE 5 7 29.94 1014 10 16 0.00 0.00
2:53 pm 14:53 Partly Cloudy 76 24.4 56 13.3 50 50 S 7 11 29.92 1013 10 16 0.00 0.00
3:53 pm 15:53 Mostly Cloudy 75 23.9 55 12.8 50 50 S 14 22 29.91 1013 10 16 0.00 0.00
4:53 pm 16:53 Mostly Cloudy 77 25 55 12.8 47 47 ESE 7 11 29.91 1013 10 16 0.00 0.00
5:53 pm 17:53 Mostly Cloudy 78 25.6 55 12.8 45 45 S 12 19 29.91 1013 10 16 0.00 0.00
6:53 pm 18:53 Mostly Cloudy 75 23.9 55 12.8 50 50 S 8 13 29.93 1013 10 16 0.00 0.00
7:53 pm 19:53 Sunny 72 22.2 55 12.8 55 55 S 6 9 29.93 1014 10 16 0.00 0.00
8:53 pm 20:53 Clear 68 20 54 12.2 61 61 S 5 7 29.96 1015 10 16 0.00 0.00
9:53 pm 21:53 Clear 69 20.6 55 12.8 61 61 SSE 7 11 29.97 1015 10 16 0.00 0.00
10:53 pm 22:53 Clear 67 19.4 55 12.8 66 66 S 7 11 29.99 1016 10 16 0.00 0.00
11:53 pm 23:53 Clear 63 17.2 55 12.8 76 76 NE 3 6 29.98 1015 10 16 0.00 0.00

Powered by AerisWeather